EW9945 Weather Reports


time (UTC)temp
C
wind
direction
speed
KPH
gust
KPH
rain 1hr
cm
rain 24hr
cm
rain mn
cm
humidity
%
barometer
mb
20260510194521 18 313 0.0 0.0 0.00 0.43 0.03 36 1013.2
20260510193018 18 307 0.0 0.0 0.00 0.43 0.03 37 1013.3
20260510191514 17 16 0.0 6.4 0.00 0.43 0.03 43 1013.4
20260510190032 17 325 0.0 1.6 0.00 0.48 0.03 42 1013.5
20260510184513 17 322 0.0 1.6 0.00 0.48 0.03 44 1013.6
20260510183014 17 306 0.0 1.6 0.00 0.48 0.03 49 1013.6
20260510181512 16 294 0.0 1.6 0.03 0.48 0.03 51 1013.8
20260510180017 16 309 0.0 1.6 0.03 0.56 0.03 50 1013.8
20260510174511 16 348 0.0 1.6 0.03 0.56 0.03 50 1013.8
20260510173011 17 333 0.0 1.6 0.03 0.56 0.03 47 1013.7
20260510171509 17 19 0.0 0.0 0.00 0.53 0.00 50 1013.7
20260510170006 16 355 0.0 1.6 0.00 0.56 0.00 52 1013.9
20260510164504 16 59 0.0 1.6 0.00 0.56 0.00 54 1014.1
20260510163004 16 76 0.0 1.6 0.00 0.56 0.00 54 1014.0
20260510161600 15 355 0.0 1.6 0.00 0.56 0.00 56 1014.1
20260510161503 15 355 0.0 1.6 0.00 0.56 0.00 55 1014.2
20260510160100 13 355 0.0 1.6 0.00 0.56 0.00 58 1014.1
20260510154603 13 312 0.0 1.6 0.00 0.56 0.00 63 1014.1
20260510153056 13 312 0.0 1.6 0.00 0.56 0.00 59 1014.0
20260510151556 15 355 0.0 1.6 0.00 0.56 0.00 60 1013.8
20260510150119 14 350 0.0 0.0 0.00 0.56 0.00 66 1013.6
20260510144608 14 5 0.0 0.0 0.00 0.56 0.00 71 1013.2
20260510143046 13 346 0.0 1.6 0.00 0.56 0.00 73 1013.0
20260510141545 12 348 0.0 0.0 0.00 0.56 0.00 80 1013.1
20260510140044 11 355 0.0 0.0 0.00 0.56 0.00 83 1012.9
20260510134548 12 302 0.0 0.0 0.00 0.56 0.00 79 1012.7
20260510133046 14 297 0.0 11.3 0.00 0.56 0.00 78 1012.4
20260510131543 13 323 0.0 9.7 0.00 0.56 0.00 85 1012.2
20260510130038 13 327 0.0 8.0 0.00 0.61 0.00 84 1012.2
20260510124538 13 212 0.0 4.8 0.00 0.61 0.00 83 1012.0
20260510123034 13 181 0.0 6.4 0.00 0.61 0.00 87 1012.0
20260510121533 12 173 0.0 4.8 0.00 0.61 0.00 89 1012.1
20260510120029 11 175 0.0 0.0 0.00 0.64 0.00 89 1012.1
20260510114536 11 174 0.0 0.0 0.00 0.64 0.00 92 1011.9
20260510113032 10 172 0.0 0.0 0.00 0.64 0.00 92 1011.7
20260510111525 10 172 0.0 0.0 0.00 0.64 0.00 92 1011.4
20260510110023 9 172 0.0 0.0 0.00 0.81 0.00 92 1011.2
20260510104514 9 172 0.0 0.0 0.00 0.81 0.00 92 1010.9
20260510103012 9 172 0.0 0.0 0.00 0.81 0.00 92 1010.7
20260510101512 9 172 0.0 0.0 0.00 0.81 0.00 92 1010.5
20260510100007 9 190 0.0 8.0 0.00 0.99 0.00 91 1010.3
20260510094507 9 112 0.0 0.0 0.00 0.99 0.00 91 1010.1
20260510093005 9 104 0.0 4.8 0.00 0.99 0.00 91 1009.8
20260510091501 9 101 0.0 1.6 0.00 0.99 0.00 92 1009.5
20260510090101 8 101 0.0 4.8 0.00 1.09 0.99 92 1009.5
20260510084600 9 101 0.0 0.0 0.00 1.09 0.99 91 1009.4
20260510083100 9 101 0.0 8.0 0.00 1.09 0.99 91 1009.4
20260510081559 9 101 0.0 0.0 0.00 1.09 0.99 92 1009.3
20260510080101 9 101 0.0 0.0 0.00 1.12 0.99 92 1009.2
20260510074607 9 101 0.0 0.0 0.00 1.12 0.99 92 1009.5
20260510073100 9 101 0.0 0.0 0.00 1.12 0.99 92 1009.3
20260510071603 8 96 0.0 0.0 0.00 1.12 0.99 92 1009.0
20260510070109 8 96 0.0 12.9 0.00 1.12 0.99 92 1009.1
20260510064501 8 166 0.0 0.0 0.00 1.12 0.99 92 1009.3
20260510063103 8 166 0.0 3.2 0.00 1.12 0.99 91 1009.1
20260510061600 8 166 0.0 0.0 0.00 1.12 0.99 91 1009.2
20260510054605 9 166 0.0 6.4 0.00 1.14 0.99 91 1009.2
20260510053057 9 36 0.0 3.2 0.00 1.14 0.99 91 1009.0
20260510051557 9 36 0.0 0.0 0.00 1.14 0.99 91 1009.3
20260510050059 9 36 0.0 0.0 0.03 1.30 0.99 91 1009.6
20260510044611 9 36 0.0 1.6 0.08 1.30 0.99 91 1009.6
20260510043101 9 36 0.0 6.4 0.10 1.30 0.99 91 1009.7
20260510041559 9 100 0.0 9.7 0.15 1.30 0.99 91 1009.6
20260510040056 9 136 3.2 8.0 0.20 1.32 0.97 91 1010.0
20260510034555 9 145 1.6 4.8 0.20 1.30 0.94 89 1010.0
20260510033120 9 271 0.0 0.0 0.15 1.24 0.89 88 1010.1
20260510031619 10 277 0.0 4.8 0.13 1.22 0.86 86 1010.3
20260510030054 10 302 4.8 33.8 0.03 1.17 0.76 84 1010.2
20260510024553 11 302 17.7 33.8 0.00 1.14 0.71 87 1010.0
20260510023052 11 244 0.0 0.0 0.00 1.14 0.71 88 1009.0
20260510021551 11 243 0.0 4.8 0.00 1.14 0.71 88 1009.1
20260510020051 12 182 0.0 6.4 0.00 1.14 0.71 87 1008.3
20260510014602 12 126 1.6 11.3 0.00 1.14 0.71 87 1008.0
20260510013050 12 121 6.4 16.1 0.00 1.14 0.71 87 1007.4
20260510011557 12 120 0.0 20.9 0.00 1.14 0.71 88 1007.4
20260510010100 12 123 3.2 12.9 0.00 1.14 0.71 88 1007.3
20260510004555 12 133 0.0 8.0 0.00 1.14 0.71 88 1007.4
20260510003059 12 163 0.0 8.0 0.00 1.14 0.71 88 1007.3
20260510001549 12 113 0.0 8.0 0.00 1.14 0.71 87 1007.0
20260510000054 12 119 1.6 12.9 0.00 1.17 0.71 86 1006.9
20260509234604 12 137 0.0 9.7 0.00 1.17 0.71 85 1007.0
20260509233049 13 139 0.0 1.6 0.00 1.17 0.71 83 1006.8
20260509231548 13 139 0.0 6.4 0.00 1.17 0.71 82 1006.7
20260509230053 13 167 3.2 11.3 0.00 1.17 0.71 82 1006.6
20260509224546 13 144 0.0 6.4 0.00 1.17 0.71 82 1006.5
20260509223055 13 202 1.6 8.0 0.00 1.17 0.71 83 1006.6
20260509221549 13 160 0.0 9.7 0.00 1.17 0.71 84 1006.7
20260509220055 13 152 1.6 8.0 0.00 1.17 0.71 86 1006.7
20260509214543 13 123 4.8 16.1 0.00 1.17 0.71 85 1006.6
20260509213043 13 138 3.2 14.5 0.00 1.17 0.71 86 1006.9
20260509211543 13 197 1.6 11.3 0.00 1.17 0.71 88 1007.0
20260509210038 12 208 3.2 12.9 0.00 1.17 0.71 89 1007.0
20260509204541 12 126 0.0 11.3 0.00 1.17 0.71 91 1007.0
20260509203036 12 205 0.0 12.9 0.05 1.17 0.71 92 1007.3
20260509201531 11 80 0.0 11.3 0.15 1.17 0.71 92 1007.6
20260509200036 11 159 0.0 6.4 0.18 1.17 0.71 93 1007.7